Lid_Strength_Index
0 0 -0 2 8 8 11 9 6 7 7 5 5 5 6 5 7 11 1 1 0 -0 -1 -1 -1 -2 -2 -1 -1 -1 -1 -1 -1 -1 -2 -1 -2 -2 -2 -2 -2 -2 -2 -2 -2 -2 -2 -1 -1
1 2 1 4 11 12 10 7 8 6 5 4 5 5 6 7 4 4 2 2 1 -0 -1 -1 -1 -1 -1 -1 -1 -1 -1 -1 -1 -1 -2 -2 -2 -2 -2 -2 -2 -2 -2 -2 -2 -2 -1 -1 -1
1 1 5 7 10 12 10 7 6 5 4 5 5 4 5 6 4 3 1 2 1 -0 -1 -0 -1 -1 -1 -1 -1 -1 -1 -1 -1 -1 -2 -2 -2 -2 -2 -2 -2 -2 -2 -2 -2 -1 -1 -1 -1
1 2 4 9 11 8 8 6 5 6 5 4 4 6 4 2 3 2 0 2 0 -0 -0 -0 -1 -1 -1 -1 -1 -1 -1 -2 -2 -2 -2 -2 -2 -2 -2 -2 -2 -2 -1 -1 -1 -1 -1 -1 -1
2 4 8 9 9 7 6 5 5 6 5 5 5 6 5 3 1 1 1 2 0 -0 -0 -1 -1 -1 -1 -1 -1 -1 -1 -2 -2 -2 -2 -2 -2 -2 -2 -2 -2 -1 -1 -1 -1 -1 -1 -1 -1
6 6 10 10 9 6 5 4 5 6 5 5 5 6 5 2 2 1 1 2 -0 0 -0 -1 1 0 -0 -1 -1 -1 -1 -2 -2 -2 -2 -2 -2 -2 -2 -2 -1 -1 -1 -1 -1 -1 -1 -1 -1
7 7 10 10 9 8 6 4 6 6 6 5 4 6 4 3 1 1 0 2 -0 -0 0 -0 -1 -0 1 -0 -0 -1 -1 -1 -2 -2 -2 -2 -2 -2 -2 -2 -1 -1 -1 -1 -1 -1 -1 -1 -1
6 8 10 9 10 9 6 5 4 5 6 3 3 6 6 3 1 1 0 1 0 0 0 0 -1 -1 -1 -1 1 0 -1 -1 -1 -1 -1 -1 -1 -1 -1 -1 -2 -1 -1 -1 -1 -1 -1 -1 -1
5 10 11 10 10 9 6 6 4 3 5 4 3 4 3 2 1 2 2 1 1 1 0 -0 -0 -1 -1 -1 0 1 0 -0 -0 -1 -0 -0 -1 -1 -1 -1 -2 -1 -1 -1 -1 -1 -1 -1 -1
8 10 10 8 7 8 6 6 5 5 6 5 4 3 2 2 3 3 3 3 2 2 1 0 -0 -0 -1 -1 -1 -1 -1 -1 -1 -1 -1 -1 -1 -1 -1 -0 -0 -1 -1 -1 -1 -1 -1 -1 -1
8 11 9 8 8 8 8 7 5 6 7 5 5 4 3 3 4 4 3 3 2 1 1 0 -0 -0 -0 -0 -1 -1 -1 -1 -1 -1 -1 -1 -1 -1 -1 -1 -1 -1 1 -0 -1 -1 -1 -1 -1
10 8 8 8 7 7 8 7 8 7 5 3 3 3 3 3 4 4 4 3 2 1 1 0 -0 -0 -0 -0 -0 -0 -0 -1 -1 -1 -1 -1 -1 -1 -1 -1 -1 -1 -1 -1 -1 -1 -1 -1 -1
9 8 8 7 7 7 7 7 7 7 5 3 3 3 3 3 3 3 3 2 2 2 1 1 -0 -0 0 0 -0 -0 -0 -1 -1 -1 -1 -1 -1 -0 -1 -1 -1 -1 -1 -1 -1 -1 -1 -1 -1
8 8 8 7 7 7 7 7 6 6 5 6 5 4 3 4 3 3 3 3 2 2 1 1 1 0 -0 0 -0 -0 -1 -1 -1 -1 -1 -1 -1 -1 -1 -1 -1 -1 -1 -1 -1 -1 -0 -0 -1
8 10 8 7 7 7 6 9 8 5 5 6 5 4 3 4 3 3 3 3 2 2 1 1 1 0 0 0 -0 -0 -1 -1 -1 -1 -1 -1 -1 -1 -1 -0 -0 -1 -1 -1 -1 -1 -1 -0 -0
10 9 12 7 7 7 8 12 7 5 6 6 5 4 4 4 4 3 2 2 2 2 2 1 1 0 0 0 -0 -0 -1 -1 -1 -1 -1 -1 -1 -1 -1 -0 -0 -1 -1 -0 0 0 0 0 0
10 14 13 11 7 8 9 12 8 5 6 6 5 5 5 5 4 3 2 2 2 2 1 2 1 1 0 0 0 0 -0 0 -1 -1 -1 -1 -1 -1 -1 -0 -0 -1 -0 -0 0 0 0 1 1
15 15 12 13 10 10 11 12 8 6 6 6 6 6 6 6 6 4 3 2 2 1 1 1 1 1 0 0 0 0 0 0 -0 -0 -0 -1 -1 -1 -1 -0 0 -0 0 0 1 1 0 1 1
11 12 14 11 9 11 11 11 10 7 7 7 7 7 6 6 6 5 4 2 2 2 2 1 1 1 1 1 1 1 2 1 0 -0 -0 -1 -1 -1 -0 -0 -0 -0 0 0 0 1 1 1 1
11 13 14 11 9 11 11 12 10 8 8 7 7 7 7 6 8 7 7 7 6 2 2 2 1 1 1 1 1 1 1 0 0 -0 -0 -1 -1 -1 -0 -0 0 -0 0 0 1 1 2 1 1
11 14 14 14 11 10 12 14 12 10 8 7 7 7 7 7 9 8 8 9 8 8 5 3 1 1 1 1 1 1 1 1 1 1 0 -0 -0 -0 -0 -0 -0 -0 0 1 1 1 1 3 1
13 9 10 13 14 17 12 19 14 12 11 9 10 9 8 8 8 9 8 9 9 9 8 6 5 4 3 1 1 2 2 3 1 1 0 0 -0 -0 -0 -0 -0 -0 -0 1 1 0 1 1 3
11 9 10 12 14 14 14 17 15 12 13 13 11 10 9 10 9 10 9 9 9 8 9 7 6 6 5 5 4 2 2 2 1 1 1 1 0 1 1 1 1 1 1 0 0 1 1 1 2
8 9 10 11 14 19 15 16 16 15 14 14 12 10 9 9 9 9 9 8 9 8 9 8 8 7 6 6 6 6 6 3 3 3 3 3 3 3 3 3 2 2 2 2 2 2 2 1 2
9 11 18 19 18 19 13 15 15 13 12 12 11 10 8 9 9 9 9 9 8 9 9 8 8 9 8 7 6 6 6 6 5 5 5 5 4 4 4 4 4 4 4 3 3 2 2 2 2
11 11 16 22 20 18 14 18 15 12 12 11 10 10 10 9 9 9 9 8 8 8 8 9 9 9 8 7 7 7 6 6 6 7 6 5 6 6 6 5 5 5 4 4 4 4 4 3 3
12 13 10 15 15 16 15 14 12 11 11 11 11 11 11 11 10 9 9 9 8 8 9 9 9 9 9 9 8 7 7 6 7 7 6 6 6 7 6 6 6 6 5 5 4 4 5 5 5
11 10 14 14 20 20 17 16 16 13 13 12 11 11 11 11 11 10 10 10 9 9 9 9 9 9 10 10 9 8 8 7 7 7 7 7 7 7 7 7 7 6 6 5 5 6 6 6 6
12 12 12 12 14 18 18 17 12 12 12 12 13 12 12 12 12 11 11 11 10 10 10 9 9 9 9 9 9 9 9 8 8 7 7 8 8 8 8 8 7 7 7 6 6 7 6 7 7
12 13 12 15 16 13 15 15 10 10 11 12 12 12 11 11 11 11 10 10 10 10 9 9 9 9 9 9 9 9 9 9 8 8 8 7 8 7 7 8 7 7 6 6 6 6 6 6 7